Location: Pigeon Creek
(41.1109°N, 81.6729°W)
Time: 14:14:57
(UTC+00:00)

Daily predictions for brighter satellites

Satellite Brightness Start Highest point End
(mag) Time Altitude Azimuth Time Altitude Azimuth Time Altitude Azimuth
STARLINK-62 3.7 12:01:11 10° WSW 12:05:08 53° NW 12:09:05 10° NE
STARLINK-41 3.6 12:01:48 10° WSW 12:05:36 54° NW 12:09:26 10° NE
Cosmos 1697 Rocket 4.0 12:02:05 10° W 12:05:50 18° NW 12:09:36 10° N
NOSS 3-4 (A) 3.4 12:00:41 10° SW 12:06:38 77° NW 12:12:56 10° NNE
NOSS 3-4 (C) 3.4 12:00:47 10° SW 12:06:44 78° NW 12:13:03 10° NNE
CZ-2C R/B 4.2 12:03:15 10° SSE 12:07:50 66° ENE 12:12:23 10° N
Cosmos 2228 3.8 12:04:15 10° SW 12:08:08 30° WNW 12:12:02 10° NNW
Cosmos 158 Rocket 3.9 12:04:21 10° SSW 12:09:13 88° ESE 12:14:09 10° NNE
USA 215 4.2 12:04:29 10° S 12:10:04 30° SW 12:15:40 10° WNW
ATLAS 3B R/B 3.1 12:03:27 10° NNW 12:10:09 63° NE 12:17:01 10° SE
STARLINK 3.7 12:10:12 10° WSW 12:13:58 50° NNW 12:17:46 10° NE
Cosmos 2227 4.4 12:11:29 10° NNW 12:16:59 54° WSW 12:22:26 10° S
Cosmos 1624 Rocket 4.3 12:12:19 10° NNW 12:17:33 72° ENE 12:22:43 10° SSE
NOSS 3-2 (A) 4.5 12:10:40 10° NW 12:18:05 49° WSW 12:26:10 10° S
SL-8 Rocket 4.4 12:13:18 10° NNW 12:19:02 40° W 12:24:43 10° SSW
Okean-O 2.9 12:14:39 10° NNE 12:19:06 78° ESE 12:23:32 10° S
BREEZE M DEB (TANK) 4.0 12:07:30 10° WNW 12:20:21 53° N 12:24:04 10° E
Cosmos 1953 Rocket 4.5 12:17:01 10° NNW 12:20:50 28° W 12:24:35 10° SSW
BREEZE-M DEB (TANK) 4.2 12:13:22 10° W 12:22:21 36° NNW 12:26:19 10° NE
Cosmos 2154 Rocket 4.3 22:49:39 10° SSE 22:55:36 46° E 23:01:33 10° NNE
Cosmos 2058 Rocket 3.2 22:51:19 10° N 22:55:41 82° W 23:00:03 10° S
USA 234 3.4 22:49:30 10° SE 22:56:03 82° SW 23:02:38 10° NW
Cosmos 1674 3.5 22:53:15 10° SSW 22:56:53 52° W 23:00:32 10° N
Envisat 3.1 22:52:33 10° SSE 22:57:28 53° ENE 23:02:24 10° N
Cosmos 1602 Rocket 3.9 22:58:38 10° SSE 23:02:49 44° E 23:06:59 10° NNE
Starlink T 3.8 23:00:51 10° WSW 23:03:34 36° NNW 23:06:17 10° NE
Starlink N 3.9 23:02:00 10° WSW 23:04:42 35° NNW 23:07:26 10° NE
Starlink Q 3.9 23:03:29 10° W 23:06:11 34° NNW 23:08:53 10° NE
Cosmos 1908 4.2 23:03:10 10° NNW 23:06:57 52° W 23:10:40 10° S
Cosmos 1048 Rocket 4.0 23:01:58 10° N 23:07:01 55° ENE 23:12:01 10° SE
Starlink P 4.0 23:04:46 10° W 23:07:27 33° NNW 23:10:09 10° NE
Cosmos 1300 3.0 23:04:04 10° N 23:07:44 43° E 23:11:22 10° SSE
Starlink U 4.0 23:06:02 10° W 23:08:43 33° NNW 23:11:23 10° NE
Cosmos 1340 Rocket 3.5 23:05:49 10° N 23:09:25 32° ENE 23:13:00 10° SE
Starlink B 4.0 23:06:51 10° W 23:09:29 32° NNW 23:12:09 10° NE
Cosmos 1461 3.0 23:06:28 10° NNW 23:10:47 62° NE 23:15:15 10° SE
Cosmos 1610 Rocket 4.5 23:05:45 10° S 23:11:47 67° E 23:17:53 10° NNE
Cosmos 372 Rocket 4.4 23:07:33 10° SSW 23:12:37 64° WNW 23:17:45 10° NNE
ERBS 3.8 23:11:14 10° S 23:13:52 22° SE 23:15:55 13° E
COSMO-SKYMED 1 2.9 23:09:57 10° NNE 23:14:09 45° E 23:18:18 10° S
Starlink D 4.2 23:11:54 10° W 23:14:32 30° NNW 23:17:11 10° NE
SL-14 R/B 3.2 23:11:12 10° S 23:15:13 81° E 23:19:13 10° N
Starlink S 4.2 23:13:15 10° W 23:15:53 29° NNW 23:18:31 10° NNE
Okean-O 2.6 23:11:35 10° SSE 23:15:58 67° ENE 23:20:22 10° N
Starlink C 4.3 23:14:34 10° W 23:17:11 28° NNW 23:19:46 10° NNE
Cosmos 1271 Rocket 3.1 23:14:01 10° SSW 23:17:42 64° W 23:21:27 10° N
Cosmos 468 4.4 23:12:30 10° NNW 23:17:45 78° ENE 23:22:57 10° SSE
Cosmos 2074 Rocket 4.4 23:12:03 10° SSW 23:18:19 71° W 23:24:38 10° N
Starlink E 4.3 23:15:57 10° W 23:18:33 28° NNW 23:21:04 11° NNE
Cosmos 1758 Rocket 4.4 23:15:58 10° SSE 23:19:39 28° E 23:23:20 10° NNE
Starlink J 4.3 23:17:19 10° W 23:19:54 27° NNW 23:22:22 11° NNE
Starlink V 4.4 23:18:40 10° W 23:21:14 27° NNW 23:23:39 11° NNE
Starlink H 4.4 23:20:04 10° W 23:22:37 26° NNW 23:24:59 11° NNE
CZ-4C R/B 3.0 23:16:33 10° NNW 23:23:45 60° NE 23:31:54 10° SE
Starlink F 4.4 23:21:27 10° W 23:24:00 26° NNW 23:26:18 12° NNE
Cosmos 2333 Rocket 2.2 23:18:17 10° NNW 23:24:02 90° W 23:29:43 10° SSE
Cosmos 2237 Rocket 2.8 23:20:10 10° N 23:25:17 34° ENE 23:30:21 10° ESE
Starlink G 4.5 23:22:50 10° W 23:25:21 25° NNW 23:27:36 12° NNE
Cosmos 1939 Rocket 3.9 23:22:49 10° ESE 23:25:54 23° ENE 23:29:01 10° NNE
Cosmos 1626 Rocket 3.7 23:21:35 10° SSW 23:25:55 77° W 23:30:15 10° N
Cosmos 1626 2.2 23:23:19 10° S 23:27:00 79° W 23:30:44 10° N
Meteor 1-24 Rocket 4.2 23:22:54 10° SSW 23:28:06 58° WNW 23:33:25 10° N
Cosmos 1242 Rocket 3.2 23:26:21 10° SSW 23:29:45 55° W 23:33:15 10° N
YAOGAN 6 2.5 23:27:32 10° SSE 23:31:13 83° ENE 23:34:55 10° N
ATLAS CENTAUR R/B 4.4 23:26:52 10° W 23:32:03 43° NNW 23:45:26 10° NE
CSL-04 Rocket 3.8 23:34:58 10° SE 23:40:12 50° ENE 23:45:33 10° N
Ariane Rocket 4.1 23:38:17 14° ESE 23:41:05 23° ENE 23:44:58 10° NNE
Nadezhda 3 Rocket 4.1 23:35:13 10° N 23:41:31 87° W 23:47:51 10° S
SL-16 R/B 3.4 23:41:00 10° N 23:45:10 20° NE 23:45:41 20° ENE
FengYun 1-2 T 4.3 23:40:01 10° SSE 23:45:37 84° WSW 23:51:18 10° NNW
Cosmos 494 Rocket 3.8 23:40:31 10° NNW 23:45:38 68° ENE 23:50:43 10° SSE
Cosmos 1825 Rocket 3.7 23:41:30 10° SSE 23:45:42 49° E 23:49:54 10° NNE
Cosmos 2219 3.1 23:41:47 10° SSW 23:47:20 71° ESE 23:52:47 11° NNE
ADEOS Rocket 3.8 23:43:11 10° NNE 23:49:12 36° E 23:55:44 10° SSE
ATLAS 5 CENTAUR R/B 4.1 23:46:55 10° WNW 23:49:16 14° NNW 23:51:46 10° N
CZ-4 R/B 4.4 23:45:38 10° SSE 23:49:46 88° WSW 23:53:55 10° NNW
CZ-4 R/B 1.3 23:47:31 10° SSE 23:51:31 86° ENE 23:55:37 10° NNW
Shenzhou-11 Module 3.7 23:54:42 10° SSW 23:56:19 18° SSE 23:56:19 18° SSE
